Location: Bastogne Gables
(35.1554°N, 78.9900°W)
Time: 03:21:09
(UTC+00:00)

Cosmos 2263 Rocket - Pass Details

Date: 29 October 2020
Orbit: 822 x 850 km, 71.0° (Epoch: 26 November)

Event Time Altitude Azimuth Distance (km) Brightness Sun altitude
Rises 23:45:28 0° 357° (N) 3,418 5.3 -17.2°
Reaches altitude 10° 23:49:08 10° 21° (NNE) 2,480 4.4 -17.9°
Enters shadow 23:50:17 13° 32° (NNE) 2,293 4.1 -18.2°
